Tracking 30157 objects as of 13-Feb-2025
HD Live streaming from Space Station
objects crossing your sky now

STARLINK-4093

Track STARLINK-4093 now!
10-day predictions
STARLINK-4093 is classified as:


NORAD ID: 53157
Int'l Code: 2022-083AB
Perigee: 545.9 km
Apogee: 547.9 km
Inclination: 53.2 °
Period: 95.4 minutes
Semi major axis: 6917 km
RCS: Unknown
Launch date: July 17, 2022
Source: United States (US)
Launch site: AIR FORCE EASTERN TEST RANGE (AFETR)
Your satellite tracking list
Your tracking list is empty




NASA's NSSDC Master Catalog

Two Line Element Set (TLE):
1 53157U 22083AB  25043.42957268 -.00000001  00000-0  18000-4 0  9998
2 53157  53.2166 116.0648 0001392  91.4828 268.6323 15.08833484142448
Source of the keplerian elements: AFSPC